Dewpoint
18 19 19 20 22 22 22 22 20 17 17 15 16 18 21 22 23 22 22 29 32 33 33 33 33 33 34 35 36 36 38 38 38 39 40 40 40 41
19 19 19 21 21 22 23 22 22 21 19 19 20 21 21 21 25 22 22 28 31 32 32 32 32 33 34 35 35 35 36 37 37 38 39 39 40 41
20 20 20 21 21 21 22 22 22 21 21 21 22 22 21 21 21 23 25 24 25 30 31 31 32 32 32 33 34 35 35 36 37 38 39 39 39 40
20 21 21 19 20 20 21 21 22 22 23 23 23 22 20 22 23 25 21 18 19 24 29 30 31 31 32 32 33 34 34 35 35 36 37 37 39 39
21 21 21 20 19 20 22 23 23 22 25 23 21 23 24 27 22 20 18 19 18 25 27 29 30 31 32 32 32 32 32 33 33 34 34 35 36 37
22 22 21 21 21 22 23 23 23 22 23 24 25 28 24 22 23 20 19 20 21 21 25 27 29 29 30 31 31 30 31 31 32 32 33 33 33 34
22 21 21 24 28 27 24 23 22 25 27 29 25 22 23 19 18 19 20 22 23 22 22 22 22 23 25 28 27 28 29 30 31 32 33 34 33 34
21 21 21 25 25 28 28 28 27 27 31 27 25 20 18 18 20 23 26 22 21 22 21 22 24 22 22 23 27 29 30 31 31 32 33 34 36 36
21 21 21 21 25 24 27 29 31 31 28 24 20 19 20 21 28 26 25 24 24 24 23 20 21 20 21 19 27 29 30 31 31 32 33 33 35 34
22 22 22 22 24 24 24 32 28 22 21 20 21 23 28 26 23 24 27 26 24 21 20 21 21 20 21 22 27 29 30 30 31 32 33 33 33 33
22 22 22 22 26 27 29 27 20 19 21 26 29 28 26 26 26 26 24 22 19 18 20 19 21 22 23 23 24 27 28 29 31 34 35 35 35 34
22 20 24 24 27 30 23 21 20 17 26 26 17 18 20 20 25 21 24 21 20 19 19 22 23 23 21 22 25 26 25 28 31 33 35 37 37 35
21 21 21 26 29 26 25 19 20 25 23 16 16 18 19 19 19 21 23 24 21 20 21 24 24 23 23 23 25 27 27 27 29 30 32 33 36 36
21 22 22 27 25 24 23 25 26 24 16 17 18 20 21 22 23 23 23 24 24 23 24 24 23 23 23 22 23 28 29 30 32 31 32 33 34 37
23 24 26 25 23 20 22 24 23 16 17 20 21 21 22 23 23 23 24 23 23 24 25 25 25 26 26 25 26 27 28 30 32 32 34 33 33 32
24 22 22 21 21 20 17 17 15 17 20 21 21 21 22 22 21 22 21 22 22 22 25 27 29 29 28 28 28 27 29 29 33 34 33 33 34 32
22 18 14 14 14 14 14 15 16 16 20 20 20 20 20 20 20 21 22 22 20 21 22 25 28 30 29 29 28 30 31 32 33 33 33 32 33 32
18 13 13 14 14 14 15 16 16 19 19 20 19 19 19 19 20 21 21 21 20 21 22 25 27 26 27 30 30 32 32 31 32 33 33 31 32 30
14 14 15 15 16 16 17 18 18 19 20 19 19 19 20 21 19 20 20 21 21 22 25 27 26 27 24 23 28 29 30 31 31 32 33 32 32 32
15 15 16 16 17 18 18 19 19 18 19 19 20 21 19 20 19 19 20 20 22 25 25 26 27 27 26 26 26 29 32 32 31 31 31 33 34 35
15 15 16 17 17 18 18 18 18 18 20 20 19 19 20 20 19 20 21 23 24 24 24 25 27 30 30 31 28 28 31 34 33 32 32 31 30 31
15 16 16 17 18 18 18 18 18 18 18 18 19 20 20 21 20 21 22 23 23 25 25 27 27 29 29 28 27 28 30 31 32 32 34 35 31 27
16 17 17 17 18 18 18 17 17 17 18 18 19 20 20 21 22 23 24 24 25 26 26 25 26 28 27 27 27 27 28 29 30 30 33 35 36 36
Lifted_Index
19 19 19 20 21 21 21 21 19 16 15 18 21 23 24 24 24 24 24 23 22 20 19 18 17 15 14 13 13 12 12 12 12 12 11 11 11 11
19 19 19 20 21 21 21 21 20 18 17 19 21 23 24 24 24 23 22 21 19 18 17 16 16 15 14 13 12 12 11 11 11 11 10 10 10 10
19 19 20 20 21 21 22 22 22 21 20 20 22 23 23 22 22 21 19 18 17 16 16 15 15 14 14 13 13 12 11 11 11 10 10 10 9 9
19 19 20 20 21 21 22 22 22 23 22 22 22 22 21 20 19 18 17 17 16 16 16 16 15 15 15 14 14 13 12 12 11 11 10 10 9 9
19 20 20 21 21 22 22 22 23 23 23 22 21 20 18 17 17 16 16 16 16 16 16 16 16 16 16 15 15 14 14 13 13 12 12 11 10 10
20 21 21 22 22 22 22 23 23 22 22 20 19 18 17 16 16 16 16 16 16 16 16 16 16 16 16 16 16 15 15 14 14 13 13 12 12 11
21 21 22 22 22 22 22 22 22 21 19 18 17 16 16 16 16 16 15 15 15 15 16 16 16 16 16 16 16 15 15 15 14 13 13 13 12 12
21 22 22 22 23 23 22 21 20 18 17 16 16 16 16 16 16 16 16 14 14 15 15 15 15 15 15 15 15 14 14 14 13 13 12 12 12 12
22 22 22 23 23 23 22 20 18 16 16 17 17 17 16 17 17 17 16 15 15 15 15 15 14 14 14 14 13 13 12 12 12 12 11 11 11 11
22 22 22 23 22 22 20 18 17 16 17 17 17 17 17 17 17 17 16 16 15 15 16 15 14 14 13 13 12 11 11 11 11 11 10 10 10 10
22 22 23 22 21 20 18 17 17 17 17 17 17 17 17 17 17 17 16 15 15 15 15 15 14 13 12 11 10 10 10 10 10 10 10 9 9 9
22 22 22 21 19 18 17 17 17 16 16 16 16 16 16 16 16 16 15 15 14 14 14 14 14 13 11 10 9 9 9 9 9 9 9 9 9 9
22 22 21 19 18 17 17 17 17 17 16 15 15 14 14 14 14 14 14 14 14 13 13 13 13 12 11 10 9 9 9 9 9 8 9 9 9 9
22 21 19 18 17 17 17 17 17 16 16 15 14 13 13 13 13 13 13 13 13 13 13 13 12 12 11 10 9 9 9 9 9 8 8 8 8 8
20 20 18 18 17 17 17 17 16 16 15 14 13 13 12 12 12 12 12 12 12 12 12 12 12 11 10 9 9 9 9 8 9 9 8 8 7 7
19 19 18 17 17 17 16 16 16 15 14 13 13 12 12 12 12 12 11 11 11 10 11 11 11 10 10 9 9 9 9 9 8 8 7 7 7 7
19 18 17 17 16 16 15 15 15 15 14 13 12 11 11 11 11 11 11 11 10 9 9 9 10 9 9 9 9 9 9 8 8 8 7 6 6 7
18 17 17 16 16 15 15 14 14 14 13 12 12 11 10 10 10 11 11 11 10 9 9 9 9 8 8 8 9 9 9 8 8 7 6 5 6 6
17 17 16 16 15 15 15 14 14 13 12 12 11 11 10 10 10 10 10 10 10 9 9 9 8 8 8 8 9 10 9 8 7 6 6 5 6 7
17 17 16 16 15 15 15 14 13 12 12 11 11 10 10 10 10 10 10 10 10 9 9 9 9 8 8 8 9 9 10 9 8 7 6 5 6 6
17 17 16 16 15 15 14 13 12 12 11 11 10 10 10 10 10 10 10 10 10 9 9 9 9 9 9 9 9 9 10 10 9 8 7 6 6 5
17 17 16 15 15 15 14 13 12 11 10 10 10 10 10 9 9 10 10 10 10 9 9 9 9 9 9 9 9 9 9 10 10 10 9 9 7 6
17 17 16 15 15 14 13 12 11 11 10 10 10 10 10 9 9 9 10 10 10 9 9 9 9 9 9 9 9 9 9 9 9 9 10 10 9 8